Terminal Aerodrome Forecast
Issued by NWS Central Illinois

Home | Current Version | Previous Version | Text Only | Print | Product List | Glossary On
Versions: 1 2 3 4 5 6 7 8 9 10 11 12 13 14 15 16 17 18 19 20 21 22 23 24 25 26 27 28 29 30 31
000
FTUS43 KILX 010413 AAC
TAFSPI
TAF AMD
KSPI 010413Z 0104/0124 11010KT 2SM BR VCSH SCT005 BKN020
     FM010600 VRB03KT 3SM BR BKN008
      TEMPO 0108/0112 1/2SM FG BKN005
     FM011700 32006KT P6SM VCSH BKN015
     FM012000 32009KT P6SM VCSH BKN035=

USA.gov is the U.S. government's official web portal to all federal, state and local government web resources and services.